Weather History for KAHQ - April, 2014

Change the Weather History Date:

Sunday, April 13, 2014

  Actual Average Record
Temperature  
Mean Temperature 46 °F -  
Max Temperature 61 °F 61 °F 78 °F (1981)
Min Temperature 32 °F 36 °F 17 °F (1990)
Degree Days  
Heating Degree Days 18    
Moisture  
Dew Point 37 °F    
Average Humidity 79    
Maximum Humidity 90    
Minimum Humidity 65    
Precipitation  
Precipitation 0.41 in - - ()
Sea Level Pressure  
Sea Level Pressure 29.72 in    
Wind  
Wind Speed 23 mph (North)    
Max Wind Speed 41 mph    
Max Gust Speed 52 mph    
Visibility 7 miles    
Events Rain , Snow    
Averages and records for this station are not official NWS values.
T = Trace of Precipitation, MM = Missing Value Source: NWS Daily Summary

Daily Weather History Graph

Daily Weather History Graph

Search for Another Location

Airport or City:

Trip Planner

Search our weather history database for the weather conditions in past years. The results will help you decide how hot, cold, wet, or windy it might be!

Date:

Astronomy

Apr. 13, 2014 Rise Set
Actual Time 6:50 AM CDT 8:04 PM CDT
Civil Twilight 6:21 AM CDT 8:32 PM CDT
Nautical Twilight 5:47 AM CDT 9:07 PM CDT
Astronomical Twilight 5:11 AM CDT 9:43 PM CDT
Moon 6:42 PM CDT (4/13) 5:50 AM CDT (4/13)
Length of Visible Light 14h 11m
Length of Day
13h 14m
Waxing Gibbous, 97% of the Moon is Illuminated
Apr 13
Waxing Gibbous
Apr 15
Full
Apr 22
Last Quarter
Apr 29
New
May 6
First Quarter

Hourly Weather History & Observations

Time (CDT) Temp. Windchill Dew Point Humidity Pressure Visibility Wind Dir Wind Speed Gust Speed Precip Events Conditions
12:15 AM 61.0 °F - 49.3 °F 65% 29.59 in 10.0 mi NNE 16.1 mph 27.6 mph N/A   Clear
12:35 AM 60.4 °F - 50.0 °F 68% 29.62 in 10.0 mi North 13.8 mph - N/A   Scattered Clouds
12:55 AM 61.0 °F - 50.2 °F 68% 29.62 in 10.0 mi North 15.0 mph 19.6 mph N/A   Overcast
1:15 AM 59.5 °F - 49.6 °F 70% 29.62 in 10.0 mi North 17.3 mph - N/A   Scattered Clouds
1:35 AM 57.9 °F - 48.0 °F 70% 29.63 in 10.0 mi North 16.1 mph - N/A   Scattered Clouds
1:55 AM 57.2 °F - 47.5 °F 70% 29.63 in 10.0 mi North 17.3 mph - N/A   Mostly Cloudy
2:15 AM 56.7 °F - 47.3 °F 71% 29.63 in 10.0 mi North 16.1 mph 23.0 mph N/A   Mostly Cloudy
2:35 AM 56.5 °F - 47.1 °F 71% 29.63 in 10.0 mi North 15.0 mph - N/A   Overcast
2:55 AM 56.3 °F - 46.9 °F 71% 29.64 in 10.0 mi NNE 12.7 mph - N/A   Overcast
3:15 AM 55.4 °F - 46.8 °F 73% 29.66 in 10.0 mi NE 9.2 mph - N/A   Mostly Cloudy
3:35 AM 55.2 °F - 46.6 °F 73% 29.66 in 10.0 mi NNE 15.0 mph - N/A   Overcast
3:55 AM 54.3 °F - 46.4 °F 75% 29.63 in 10.0 mi North 16.1 mph - N/A   Scattered Clouds
4:15 AM 54.0 °F - 46.4 °F 76% 29.63 in 10.0 mi North 18.4 mph 24.2 mph N/A   Mostly Cloudy
4:35 AM 53.6 °F - 45.9 °F 75% 29.63 in 10.0 mi North 19.6 mph - N/A   Scattered Clouds
4:55 AM 53.6 °F - 45.5 °F 74% 29.62 in 10.0 mi North 21.9 mph 25.3 mph N/A   Mostly Cloudy
5:15 AM 52.7 °F - 44.8 °F 74% 29.63 in 10.0 mi North 24.2 mph 28.8 mph N/A   Overcast
5:35 AM 52.5 °F - 44.1 °F 73% 29.65 in 10.0 mi North 23.0 mph 29.9 mph N/A   Overcast
5:55 AM 51.8 °F - 43.3 °F 73% 29.63 in 10.0 mi North 24.2 mph 31.1 mph N/A   Overcast
6:15 AM 51.6 °F - 43.3 °F 73% 29.65 in 10.0 mi North 21.9 mph 25.3 mph N/A   Overcast
6:35 AM 51.3 °F - 43.2 °F 74% 29.67 in 10.0 mi North 17.3 mph 26.5 mph N/A   Overcast
6:55 AM 50.4 °F - 43.0 °F 76% 29.63 in 10.0 mi North 31.1 mph 36.8 mph N/A   Overcast
7:15 AM 50.2 °F - 43.0 °F 76% 29.66 in 10.0 mi NNE 21.9 mph 28.8 mph N/A   Overcast
7:35 AM 49.5 °F - 41.9 °F 75% 29.67 in 7.0 mi North 24.2 mph 34.5 mph N/A   Overcast
7:55 AM 49.1 °F - 41.9 °F 76% 29.67 in 7.0 mi NNE 26.5 mph 35.7 mph N/A   Overcast
8:15 AM 49.1 °F - 41.9 °F 76% 29.67 in 7.0 mi NNE 31.1 mph 38.0 mph N/A   Overcast
8:35 AM 49.3 °F - 42.1 °F 76% 29.66 in 7.0 mi North 29.9 mph 39.1 mph N/A   Overcast
8:55 AM 48.2 °F - 42.3 °F 80% 29.63 in 5.0 mi North 34.5 mph 46.0 mph N/A Rain Light Rain
9:15 AM 47.5 °F - 42.4 °F 83% 29.67 in 7.0 mi North 31.1 mph 39.1 mph 0.01 in Rain Light Rain
9:55 AM 46.2 °F 36.8 °F 42.3 °F 86% 29.68 in 2.5 mi North 31.1 mph 41.4 mph 0.06 in Rain Heavy Rain
10:15 AM 46.0 °F 36.7 °F 42.4 °F 87% 29.68 in 2.5 mi NNE 29.9 mph 36.8 mph 0.05 in Rain Light Rain
10:35 AM 46.9 °F - 43.7 °F 88% 29.60 in 2.5 mi NE 40.3 mph 46.0 mph 0.10 in Rain Light Rain
10:55 AM 46.6 °F - 43.2 °F 88% 29.59 in 5.0 mi NNE 40.3 mph 51.8 mph 0.10 in   Drizzle
11:15 AM 45.7 °F 37.8 °F 41.9 °F 87% 29.72 in 7.0 mi North 20.7 mph 36.8 mph N/A Rain Light Rain
11:35 AM 45.0 °F 36.9 °F 41.4 °F 87% 29.72 in 0.2 mi North 20.7 mph 24.2 mph 0.13 in   Overcast
11:55 AM 44.1 °F 34.6 °F 40.6 °F 88% 29.73 in 1.2 mi North 26.5 mph 31.1 mph 0.20 in   Unknown
12:15 PM 43.0 °F 33.3 °F 39.6 °F 88% 29.70 in 5.0 mi North 25.3 mph 28.8 mph 0.01 in Rain Light Rain
12:35 PM 42.3 °F 31.0 °F 38.5 °F 86% 29.68 in 5.0 mi North 33.4 mph 43.7 mph 0.01 in Rain Light Rain
1:15 PM 39.7 °F 27.2 °F 36.0 °F 86% 29.67 in 5.0 mi North 35.7 mph 48.3 mph N/A Rain Light Rain
1:35 PM 39.2 °F 28.3 °F 35.1 °F 85% 29.75 in 10.0 mi North 25.3 mph 36.8 mph N/A Rain Light Rain
1:55 PM 37.9 °F 24.4 °F 34.2 °F 86% 29.65 in 2.5 mi North 38.0 mph 46.0 mph 0.01 in Rain Rain
2:15 PM 37.8 °F 26.8 °F 34.3 °F 87% 29.73 in 5.0 mi North 23.0 mph 44.9 mph 0.01 in Rain Light Rain
2:35 PM 37.4 °F 24.8 °F 33.6 °F 86% 29.73 in 4.0 mi North 31.1 mph 39.1 mph 0.01 in Rain Light Rain
2:55 PM 36.5 °F 23.3 °F 32.9 °F 87% 29.74 in 5.0 mi North 32.2 mph 43.7 mph 0.01 in Rain Light Rain
3:15 PM 35.6 °F 21.7 °F 32.0 °F 87% 29.73 in 7.0 mi North 34.5 mph 42.6 mph N/A Rain Light Rain
3:35 PM 35.1 °F 22.7 °F 31.6 °F 87% 29.74 in 7.0 mi North 25.3 mph 43.7 mph N/A Rain Light Rain
3:55 PM 34.2 °F 20.3 °F 31.1 °F 89% 29.74 in 4.0 mi North 31.1 mph 42.6 mph 0.02 in Rain Light Rain
4:35 PM 32.9 °F 18.0 °F 30.2 °F 90% 29.73 in 4.0 mi North 34.5 mph 41.4 mph N/A   Overcast
4:55 PM 32.9 °F 19.3 °F 29.8 °F 88% 29.76 in 3.0 mi North 27.6 mph 50.6 mph N/A Snow Light Snow
5:15 PM 32.9 °F 18.2 °F 29.3 °F 87% 29.75 in 5.0 mi North 33.4 mph 48.3 mph N/A   Overcast
5:35 PM 32.5 °F 16.4 °F 29.1 °F 87% 29.76 in 4.0 mi North 41.4 mph 50.6 mph N/A   Overcast
5:55 PM 32.4 °F 17.5 °F 29.3 °F 88% 29.76 in 3.0 mi North 33.4 mph 44.9 mph N/A Snow Light Snow
6:15 PM 32.4 °F 17.2 °F 29.1 °F 88% 29.76 in 2.0 mi North 34.5 mph 46.0 mph N/A Snow Light Snow
6:35 PM 32.4 °F 17.7 °F 29.1 °F 88% 29.77 in 2.5 mi North 32.2 mph 43.7 mph N/A   Overcast
6:55 PM 32.5 °F 17.7 °F 28.9 °F 87% 29.79 in 2.5 mi North 33.4 mph 42.6 mph N/A Snow Light Snow
7:15 PM 32.4 °F 17.7 °F 29.1 °F 88% 29.80 in 1.8 mi North 32.2 mph 40.3 mph N/A Snow Light Snow
7:35 PM 32.2 °F 17.9 °F 29.1 °F 88% 29.80 in 1.5 mi North 29.9 mph 36.8 mph N/A Snow Light Snow
7:55 PM 32.2 °F 17.6 °F 28.9 °F 88% 29.81 in 1.5 mi NNW 31.1 mph 39.1 mph N/A Snow Light Snow
8:15 PM 32.9 °F 18.9 °F 28.4 °F 84% 29.83 in 4.0 mi North 29.9 mph 35.7 mph N/A Snow Light Snow
8:35 PM 33.3 °F 20.3 °F 28.0 °F 81% 29.86 in 5.0 mi NNW 25.3 mph 36.8 mph N/A Snow Light Snow
8:55 PM 33.4 °F 19.8 °F 27.5 °F 79% 29.87 in 7.0 mi NNW 28.8 mph 40.3 mph N/A Snow Light Snow
9:15 PM 33.1 °F 19.3 °F 28.2 °F 82% 29.89 in 2.5 mi North 28.8 mph 33.4 mph N/A Snow Light Snow
9:35 PM 33.8 °F 19.4 °F 26.8 °F 75% 29.90 in 4.0 mi North 33.4 mph 39.1 mph N/A Snow Light Snow
9:55 PM 33.8 °F 19.9 °F 26.2 °F 74% 29.91 in 4.0 mi North 31.1 mph 36.8 mph N/A Snow Light Snow
10:15 PM 34.3 °F 21.8 °F 25.2 °F 69% 29.93 in 10.0 mi North 25.3 mph 38.0 mph N/A Snow Light Snow
10:35 PM 34.2 °F 20.3 °F 24.8 °F 69% 29.95 in 10.0 mi North 31.1 mph 39.1 mph N/A   Overcast
10:55 PM 34.2 °F 20.3 °F 24.1 °F 67% 29.96 in 10.0 mi North 31.1 mph 39.1 mph N/A   Overcast
11:15 PM 33.8 °F 21.9 °F 24.6 °F 69% 29.97 in 10.0 mi North 21.9 mph 32.2 mph N/A   Overcast
11:35 PM 33.8 °F 21.3 °F 24.8 °F 70% 29.97 in 10.0 mi North 24.2 mph 32.2 mph N/A   Overcast
11:55 PM 33.6 °F 19.8 °F 24.6 °F 70% 29.97 in 10.0 mi North 29.9 mph 35.7 mph N/A   Overcast